KC5DAQ-2 Weather Reports


Display with metric or nautical units.
time (UTC)temp
F
wind
direction
speed
MPH
gust
MPH
rain 1hr
in
rain 24hr
in
rain mn
in
humidity
%
barometer
mb
20260502170434 70 97 2.0 10.0 0.00 0.00 0.00 73 1013.2
20260502170334 70 100 2.0 10.0 0.00 0.00 0.00 74 1013.3
20260502170236 70 93 1.0 10.0 0.00 0.00 0.00 74 1013.3
20260502170134 70 117 1.0 10.0 0.00 0.00 0.00 74 1013.3
20260502164334 69 30 1.0 2.0 0.00 0.00 0.00 78 1013.4
20260502164234 69 320 0.0 2.0 0.00 0.00 0.00 79 1013.4
20260502164133 69 320 0.0 2.0 0.00 0.00 0.00 79 1013.4
20260502164033 69 59 0.0 2.0 0.00 0.00 0.00 80 1013.4
20260502163934 69 61 0.0 2.0 0.00 0.00 0.00 79 1013.4
20260502163834 69 0 0.0 2.0 0.00 0.00 0.00 79 1013.4
20260502163733 69 127 0.0 2.0 0.00 0.00 0.00 79 1013.4
20260502163635 69 128 0.0 2.0 0.00 0.00 0.00 79 1013.3
20260502163536 68 127 0.0 2.0 0.00 0.00 0.00 79 1013.3
20260502163434 68 127 0.0 2.0 0.00 0.00 0.00 79 1013.3
20260502163334 68 142 0.0 2.0 0.00 0.00 0.00 79 1013.2
20260502163238 68 219 0.0 3.0 0.00 0.00 0.00 80 1013.3
20260502163133 68 219 0.0 3.0 0.00 0.00 0.00 80 1013.3
20260502163033 68 219 0.0 3.0 0.00 0.00 0.00 80 1013.3
20260502162933 68 114 0.0 10.0 0.00 0.00 0.00 80 1013.3
20260502162833 68 116 0.0 10.0 0.00 0.00 0.00 79 1013.3
20260502162734 67 114 0.0 10.0 0.00 0.00 0.00 78 1013.3
20260502162635 67 117 0.0 10.0 0.00 0.00 0.00 78 1013.4
20260502162533 67 117 1.0 10.0 0.00 0.00 0.00 78 1013.3
20260502162438 67 306 1.0 10.0 0.00 0.00 0.00 78 1013.4
20260502162333 67 299 1.0 10.0 0.00 0.00 0.00 78 1013.4
20260502162233 67 49 2.0 10.0 0.00 0.00 0.00 77 1013.4
20260502162133 67 99 4.0 10.0 0.00 0.00 0.00 79 1013.4
20260502162034 67 75 4.0 10.0 0.00 0.00 0.00 80 1013.4
20260502161933 67 93 1.0 9.0 0.00 0.00 0.00 80 1013.4
20260502161834 67 27 0.0 9.0 0.00 0.00 0.00 80 1013.3
20260502161733 67 28 2.0 9.0 0.00 0.00 0.00 80 1013.3
20260502161634 67 51 2.0 9.0 0.00 0.00 0.00 82 1013.3
20260502161533 67 89 1.0 6.0 0.00 0.00 0.00 82 1013.4
20260502161433 67 72 0.0 6.0 0.00 0.00 0.00 82 1013.4
20260502161333 66 234 1.0 6.0 0.00 0.00 0.00 82 1013.3
20260502161234 66 276 2.0 6.0 0.00 0.00 0.00 82 1013.4
20260502161133 66 92 2.0 6.0 0.00 0.00 0.00 82 1013.4
20260502161033 66 83 1.0 6.0 0.00 0.00 0.00 83 1013.3
20260502160933 66 83 1.0 6.0 0.00 0.00 0.00 83 1013.4
20260502160833 66 83 2.0 6.0 0.00 0.00 0.00 83 1013.4
20260502160733 66 41 2.0 6.0 0.00 0.00 0.00 83 1013.3
20260502160635 66 78 2.0 6.0 0.00 0.00 0.00 83 1013.3
20260502160535 66 102 2.0 5.0 0.00 0.00 0.00 86 1013.3
20260502160434 66 117 3.0 7.0 0.00 0.00 0.00 86 1013.2
20260502160333 65 80 2.0 11.0 0.00 0.00 0.00 86 1013.2
20260502160233 65 100 0.0 11.0 0.00 0.00 0.00 86 1013.2
20260502160133 65 121 0.0 11.0 0.00 0.00 0.00 86 1013.2
20260502152332 61 79 0.0 6.0 0.00 0.00 0.00 97 1013.0
20260502152233 61 78 0.0 6.0 0.00 0.00 0.00 97 1012.9
20260502152133 61 173 1.0 6.0 0.00 0.00 0.00 98 1013.0
20260502152032 61 90 2.0 6.0 0.00 0.00 0.00 98 1013.0
20260502151931 61 127 1.0 6.0 0.00 0.00 0.00 99 1012.9
20260502151832 61 106 1.0 6.0 0.00 0.00 0.00 99 1012.9
20260502151730 61 69 1.0 6.0 0.00 0.00 0.00 99 1013.0
20260502151627 61 135 2.0 6.0 0.00 0.00 0.00 99 1013.0
20260502151522 61 44 3.0 6.0 0.00 0.00 0.00 99 1013.0
20260502151419 60 93 2.0 9.0 0.00 0.00 0.00 100 1013.0
20260502151313 60 154 2.0 9.0 0.00 0.00 0.00 100 1013.0
20260502151203 60 93 2.0 9.0 0.00 0.00 0.00 100 1013.0
20260502151103 60 21 0.0 9.0 0.00 0.00 0.00 100 1013.0
20260502151002 60 0 1.0 9.0 0.00 0.00 0.00 100 1013.0
20260502150903 60 27 2.0 9.0 0.00 0.00 0.00 100 1012.9
20260502150803 60 89 3.0 9.0 0.00 0.00 0.00 100 1013.0
20260502150703 60 111 3.0 9.0 0.00 0.00 0.00 100 1013.1
20260502150602 60 97 1.0 9.0 0.00 0.00 0.00 100 1013.0
20260502150502 60 100 1.0 9.0 0.00 0.00 0.00 100 1013.1
20260502150402 60 0 1.0 6.0 0.00 0.00 0.00 100 1013.0
20260502150303 60 34 2.0 6.0 0.00 0.00 0.00 100 1013.1
20260502150204 60 63 2.0 6.0 0.00 0.00 0.00 100 1013.1
20260502150108 60 103 1.0 6.0 0.00 0.00 0.00 100 1013.0
20260502130702 51 38 0.0 0.0 0.00 0.00 0.00 100 1011.9
20260502130603 51 39 0.0 0.0 0.00 0.00 0.00 100 1012.0
20260502130503 51 39 0.0 0.0 0.00 0.00 0.00 100 1012.0
20260502130402 51 39 0.0 0.0 0.00 0.00 0.00 100 1011.9
20260502130303 51 39 0.0 0.0 0.00 0.00 0.00 100 1012.0
20260502130202 51 39 0.0 0.0 0.00 0.00 0.00 100 1012.0
20260502130103 51 39 0.0 0.0 0.00 0.00 0.00 100 1012.0
20260502123802 51 97 0.0 0.0 0.00 0.01 0.00 100 1011.5
20260502123702 51 97 0.0 0.0 0.00 0.01 0.00 100 1011.6
20260502123602 51 97 0.0 0.0 0.00 0.01 0.00 100 1011.5
20260502123502 51 97 0.0 0.0 0.00 0.01 0.00 100 1011.5
20260502123403 51 97 0.0 0.0 0.00 0.01 0.00 100 1011.5
20260502123303 51 97 0.0 0.0 0.00 0.01 0.00 100 1011.5
20260502123203 51 97 0.0 0.0 0.00 0.01 0.00 100 1011.5
20260502123110 51 97 0.0 0.0 0.00 0.01 0.00 100 1011.5
20260502123002 51 97 0.0 0.0 0.00 0.01 0.00 100 1011.4
20260502122902 51 97 0.0 0.0 0.00 0.01 0.00 100 1011.4
20260502122802 51 97 0.0 0.0 0.00 0.01 0.00 100 1011.4
20260502122702 51 97 0.0 0.0 0.00 0.01 0.00 100 1011.4
20260502122557 51 97 0.0 0.0 0.00 0.01 0.00 100 1011.4
20260502122453 51 97 0.0 0.0 0.00 0.01 0.00 100 1011.3
20260502122346 51 97 0.0 0.0 0.00 0.01 0.00 100 1011.3
20260502122242 51 97 0.0 0.0 0.00 0.01 0.00 100 1011.3
20260502122132 51 97 0.0 0.0 0.00 0.01 0.00 100 1011.3
20260502122031 51 97 0.0 0.0 0.00 0.01 0.00 100 1011.3
20260502121931 51 97 0.0 0.0 0.00 0.01 0.00 100 1011.3
20260502121831 51 97 0.0 0.0 0.00 0.01 0.00 100 1011.3
20260502121731 51 97 0.0 0.0 0.00 0.01 0.00 100 1011.3
20260502121632 51 97 0.0 0.0 0.00 0.01 0.00 100 1011.2
20260502121531 51 97 0.0 0.0 0.00 0.01 0.00 100 1011.2
20260502121433 51 97 0.0 0.0 0.00 0.01 0.00 100 1011.1
20260502121331 51 97 0.0 0.0 0.00 0.01 0.00 100 1011.2
20260502121231 51 97 0.0 0.0 0.00 0.01 0.00 100 1011.1
20260502121131 51 97 0.0 0.0 0.00 0.01 0.00 100 1011.3
20260502121032 51 97 0.0 0.0 0.00 0.01 0.00 100 1011.2
20260502120931 51 97 0.0 0.0 0.00 0.01 0.00 100 1011.2
20260502120832 51 97 0.0 0.0 0.00 0.01 0.00 100 1011.2
20260502120731 51 97 0.0 0.0 0.00 0.01 0.00 100 1011.1
20260502120633 51 97 0.0 0.0 0.00 0.01 0.00 100 1011.1
20260502120532 51 97 0.0 0.0 0.00 0.01 0.00 100 1011.2
20260502120430 51 97 0.0 0.0 0.00 0.01 0.00 100 1011.1
20260502120331 51 97 0.0 0.0 0.00 0.01 0.00 100 1011.1
20260502120230 51 97 0.0 0.0 0.00 0.01 0.00 100 1011.1
20260502120128 51 97 0.0 0.0 0.00 0.01 0.00 100 1011.1
20260502115927 51 97 0.0 0.0 0.00 0.01 0.00 100 1011.0
20260502115827 51 97 0.0 0.0 0.00 0.01 0.00 100 1011.1
20260502115729 51 97 0.0 0.0 0.00 0.01 0.00 100 1011.1
20260502115627 51 97 0.0 0.0 0.00 0.01 0.00 100 1011.0
20260502115528 51 97 0.0 0.0 0.00 0.01 0.00 100 1010.9
20260502115428 51 97 0.0 0.0 0.00 0.01 0.00 100 1011.0
20260502115329 51 97 0.0 0.0 0.00 0.01 0.00 100 1011.0
20260502115228 51 97 0.0 0.0 0.00 0.01 0.00 100 1010.9
20260502115129 51 97 0.0 0.0 0.00 0.01 0.00 100 1010.9
20260502115029 51 97 0.0 0.0 0.00 0.01 0.00 100 1010.9
20260502114928 51 97 0.0 0.0 0.00 0.01 0.00 100 1010.9
20260502114828 51 97 0.0 0.0 0.00 0.01 0.00 100 1010.8
20260502114727 51 97 0.0 0.0 0.00 0.01 0.00 100 1010.8
20260502114627 51 97 0.0 0.0 0.00 0.01 0.00 100 1010.9
20260502114528 51 97 0.0 0.0 0.00 0.01 0.00 100 1010.9
20260502114427 51 97 0.0 0.0 0.00 0.01 0.00 100 1010.9
20260502114327 51 97 0.0 0.0 0.00 0.01 0.00 100 1010.9
20260502114228 51 97 0.0 0.0 0.00 0.01 0.00 100 1010.9
20260502114130 51 97 0.0 0.0 0.00 0.01 0.00 100 1010.9
20260502114028 51 97 0.0 0.0 0.00 0.01 0.00 100 1010.9
20260502113928 51 97 0.0 0.0 0.00 0.01 0.00 100 1010.8
20260502113826 51 97 0.0 0.0 0.00 0.01 0.00 100 1010.8
20260502113727 51 97 0.0 0.0 0.00 0.01 0.00 100 1010.8
20260502113629 51 97 0.0 0.0 0.00 0.01 0.00 100 1010.8
20260502113527 51 97 0.0 0.0 0.00 0.01 0.00 100 1010.8
20260502113428 51 97 0.0 0.0 0.00 0.01 0.00 100 1010.8
20260502113328 51 97 0.0 0.0 0.00 0.01 0.00 100 1010.7
20260502113227 51 97 0.0 0.0 0.00 0.01 0.00 100 1010.7
20260502113128 51 97 0.0 0.0 0.00 0.01 0.00 100 1010.7
20260502113027 51 97 0.0 0.0 0.00 0.01 0.00 100 1010.6
20260502112928 51 97 0.0 0.0 0.00 0.01 0.00 100 1010.6
20260502112828 51 97 0.0 0.0 0.00 0.01 0.00 100 1010.7
20260502112726 51 97 0.0 0.0 0.00 0.01 0.00 100 1010.6
20260502112628 51 97 0.0 0.0 0.00 0.01 0.00 100 1010.5
20260502112526 51 97 0.0 0.0 0.00 0.01 0.00 100 1010.6
20260502112427 51 97 0.0 0.0 0.00 0.01 0.00 100 1010.5
20260502112326 51 97 0.0 0.0 0.00 0.01 0.00 100 1010.6
20260502112221 51 97 0.0 0.0 0.00 0.01 0.00 100 1010.5
20260502112114 51 97 0.0 0.0 0.00 0.01 0.00 100 1010.5
20260502112011 51 97 0.0 0.0 0.00 0.01 0.00 100 1010.6
20260502111905 51 97 0.0 0.0 0.00 0.01 0.00 100 1010.5
20260502111805 51 97 0.0 0.0 0.00 0.01 0.00 100 1010.5
20260502111703 51 97 0.0 0.0 0.00 0.01 0.00 100 1010.5
20260502111603 51 97 0.0 0.0 0.00 0.01 0.00 100 1010.5
20260502111504 51 97 0.0 0.0 0.00 0.01 0.00 100 1010.4
20260502111402 51 97 0.0 0.0 0.00 0.01 0.00 100 1010.4
20260502111302 51 97 0.0 0.0 0.00 0.01 0.00 100 1010.4
20260502111203 51 97 0.0 0.0 0.00 0.01 0.00 100 1010.4
20260502111104 51 97 0.0 0.0 0.00 0.01 0.00 100 1010.4
20260502111003 51 97 0.0 0.0 0.00 0.01 0.00 100 1010.4
20260502110903 51 97 0.0 0.0 0.00 0.01 0.00 100 1010.4
20260502110803 51 97 0.0 0.0 0.00 0.01 0.00 100 1010.4
20260502110702 51 97 0.0 0.0 0.00 0.01 0.00 100 1010.3
20260502110603 51 97 0.0 0.0 0.00 0.01 0.00 100 1010.4
20260502110503 51 97 0.0 0.0 0.00 0.01 0.00 100 1010.3
20260502110403 51 97 0.0 0.0 0.00 0.01 0.00 100 1010.3
20260502110303 51 97 0.0 0.0 0.00 0.01 0.00 100 1010.3
20260502110203 51 97 0.0 0.0 0.00 0.01 0.00 100 1010.4
20260502110103 51 97 0.0 0.0 0.00 0.01 0.00 100 1010.3
20260502110009 51 97 0.0 0.0 0.00 0.01 0.00 100 1010.3
20260502105903 51 97 0.0 0.0 0.00 0.01 0.00 100 1010.2
20260502105802 51 97 0.0 0.0 0.00 0.01 0.00 100 1010.2
20260502105659 51 97 0.0 0.0 0.00 0.01 0.00 100 1010.2
20260502105555 51 97 0.0 0.0 0.00 0.01 0.00 100 1010.2
20260502105452 51 97 0.0 0.0 0.00 0.01 0.00 100 1010.2
20260502105346 51 97 0.0 0.0 0.00 0.01 0.00 100 1010.2
20260502105239 51 97 0.0 0.0 0.00 0.01 0.00 100 1010.2
20260502105133 51 97 0.0 0.0 0.00 0.01 0.00 100 1010.1
20260502105033 51 97 0.0 0.0 0.00 0.01 0.00 100 1010.2
20260502104928 51 97 0.0 0.0 0.00 0.01 0.00 100 1010.2
20260502104827 51 97 0.0 0.0 0.00 0.01 0.00 100 1010.2
20260502104727 51 97 0.0 0.0 0.00 0.01 0.00 100 1010.3
20260502104627 51 97 0.0 0.0 0.00 0.01 0.00 100 1010.3
20260502104527 51 97 0.0 0.0 0.00 0.01 0.00 100 1010.3
20260502104426 51 97 0.0 0.0 0.00 0.01 0.00 100 1010.3
20260502104330 51 97 0.0 0.0 0.00 0.01 0.00 100 1010.3
20260502104226 51 97 0.0 0.0 0.00 0.01 0.00 100 1010.3
20260502104126 51 97 0.0 0.0 0.00 0.01 0.00 100 1010.2
20260502104026 51 97 0.0 0.0 0.00 0.01 0.00 100 1010.2
20260502103925 51 97 0.0 0.0 0.00 0.01 0.00 100 1010.2
20260502103826 51 97 0.0 0.0 0.00 0.01 0.00 100 1010.2
20260502103726 51 97 0.0 0.0 0.00 0.01 0.00 100 1010.2
20260502103625 52 97 0.0 0.0 0.00 0.01 0.00 100 1010.3
20260502103527 52 97 0.0 0.0 0.00 0.01 0.00 100 1010.2
20260502103425 51 97 0.0 0.0 0.00 0.01 0.00 100 1010.3
20260502103325 52 97 0.0 0.0 0.00 0.01 0.00 100 1010.2
20260502103225 52 97 0.0 0.0 0.00 0.01 0.00 100 1010.2
20260502103126 52 97 0.0 0.0 0.00 0.01 0.00 100 1010.2
20260502103025 52 97 0.0 0.0 0.00 0.01 0.00 100 1010.1
20260502102926 52 97 0.0 0.0 0.00 0.01 0.00 100 1010.2
20260502102825 52 97 0.0 0.0 0.00 0.01 0.00 100 1010.1
20260502102727 52 97 0.0 0.0 0.00 0.01 0.00 100 1010.1
20260502102626 52 97 0.0 0.0 0.00 0.01 0.00 100 1010.1
20260502102525 52 97 0.0 1.0 0.00 0.01 0.00 100 1010.1
20260502102427 52 97 0.0 1.0 0.00 0.01 0.00 100 1010.1
20260502102326 52 97 0.0 1.0 0.00 0.01 0.00 100 1010.1
20260502102225 52 97 0.0 1.0 0.00 0.01 0.00 100 1010.0
20260502102125 52 97 0.0 1.0 0.00 0.01 0.00 100 1010.1
20260502102025 52 97 0.0 1.0 0.00 0.01 0.00 100 1010.0
20260502101925 52 97 0.0 1.0 0.00 0.01 0.00 100 1010.1
20260502101839 52 97 0.0 1.0 0.00 0.01 0.00 100 1010.0
20260502101726 52 97 0.0 1.0 0.00 0.01 0.00 100 1010.0
20260502101626 52 97 0.0 1.0 0.00 0.01 0.00 100 1010.0
20260502101527 52 97 0.0 1.0 0.00 0.01 0.00 100 1009.9
20260502101425 52 97 0.0 1.0 0.00 0.01 0.00 100 1009.9
20260502101325 52 97 0.0 1.0 0.00 0.01 0.00 100 1010.0
20260502101226 52 97 0.0 1.0 0.00 0.01 0.00 100 1009.9
20260502101126 52 99 0.0 1.0 0.00 0.01 0.00 100 1009.9
20260502101028 52 99 0.0 1.0 0.00 0.01 0.00 100 1009.9
20260502100923 52 69 0.0 1.0 0.00 0.01 0.00 100 1009.9
20260502100822 52 69 0.0 1.0 0.00 0.01 0.00 100 1009.9
20260502100719 52 69 0.0 1.0 0.00 0.01 0.00 100 1009.9
20260502100615 52 69 0.0 1.0 0.00 0.01 0.00 100 1009.9
20260502100513 52 69 0.0 1.0 0.00 0.01 0.00 100 1009.9
20260502100410 52 69 0.0 1.0 0.00 0.01 0.00 100 1009.8
20260502100305 52 69 0.0 1.0 0.00 0.01 0.00 100 1009.9
20260502100205 52 69 1.0 1.0 0.00 0.01 0.00 100 1009.9
20260502091503 53 47 0.0 1.0 0.00 0.01 0.00 100 1009.1
20260502091401 53 47 0.0 1.0 0.00 0.01 0.00 100 1009.0
20260502091303 53 47 0.0 1.0 0.00 0.01 0.00 100 1009.0
20260502091202 53 47 0.0 1.0 0.00 0.01 0.00 100 1008.9
20260502091058 53 47 0.0 1.0 0.00 0.01 0.00 100 1009.0
20260502090957 53 47 0.0 1.0 0.00 0.01 0.00 100 1009.0
20260502090849 53 47 0.0 1.0 0.00 0.01 0.00 100 1009.0
20260502090745 53 47 0.0 1.0 0.00 0.01 0.00 100 1009.0
20260502090643 53 47 0.0 1.0 0.00 0.01 0.00 100 1008.9
20260502090532 53 47 0.0 1.0 0.00 0.01 0.00 100 1008.9
20260502090432 53 47 0.0 1.0 0.00 0.01 0.00 100 1008.8
20260502090334 53 45 0.0 1.0 0.00 0.01 0.00 100 1008.8
20260502090233 53 45 0.0 2.0 0.00 0.01 0.00 100 1008.8
20260502090129 53 45 0.0 2.0 0.00 0.01 0.00 100 1008.8
20260502071521 54 65 0.0 2.0 0.00 0.01 0.00 100 1008.5
20260502071421 54 65 0.0 2.0 0.00 0.01 0.00 100 1008.6
20260502071321 54 65 0.0 2.0 0.00 0.01 0.00 100 1008.5
20260502071222 54 65 0.0 2.0 0.00 0.01 0.00 100 1008.5
20260502071122 54 65 0.0 2.0 0.00 0.01 0.00 100 1008.5
20260502071020 54 65 0.0 2.0 0.00 0.01 0.00 100 1008.5
20260502070922 54 65 0.0 2.0 0.00 0.01 0.00 100 1008.5
20260502070820 54 65 0.0 2.0 0.00 0.01 0.00 100 1008.6
20260502070722 54 65 1.0 2.0 0.00 0.01 0.00 100 1008.5
20260502070622 54 65 0.0 2.0 0.00 0.01 0.00 100 1008.6
20260502070522 54 59 0.0 2.0 0.00 0.01 0.00 100 1008.5
20260502070420 54 59 1.0 2.0 0.00 0.01 0.00 100 1008.6
20260502070322 54 58 0.0 2.0 0.00 0.01 0.00 100 1008.6
20260502070223 54 59 0.0 2.0 0.00 0.01 0.00 100 1008.6
20260502070120 54 59 1.0 2.0 0.00 0.01 0.00 100 1008.7
20260502070021 54 59 1.0 2.0 0.00 0.01 0.00 100 1008.7
20260502065932 54 30 1.0 2.0 0.00 0.01 0.00 100 1008.7
20260502065820 54 45 0.0 2.0 0.00 0.01 0.00 100 1008.7
20260502065721 54 54 0.0 2.0 0.00 0.01 0.00 100 1008.6
20260502065622 54 52 0.0 2.0 0.00 0.01 0.00 100 1008.7
20260502065520 54 52 1.0 2.0 0.00 0.01 0.00 100 1008.7
20260502065420 54 52 1.0 2.0 0.00 0.01 0.00 100 1008.7
20260502065321 54 20 0.0 2.0 0.00 0.01 0.00 100 1008.7
20260502065220 54 341 1.0 2.0 0.00 0.01 0.00 100 1008.7
20260502065121 54 45 0.0 2.0 0.00 0.01 0.00 100 1008.6
20260502065020 54 39 0.0 2.0 0.00 0.01 0.00 100 1008.6
20260502064920 54 39 1.0 3.0 0.00 0.01 0.00 100 1008.6
20260502064820 54 39 1.0 3.0 0.00 0.01 0.00 100 1008.6
20260502064722 54 39 1.0 3.0 0.00 0.01 0.00 100 1008.6
20260502064620 54 35 0.0 3.0 0.00 0.01 0.00 100 1008.6
20260502064521 54 32 0.0 3.0 0.00 0.01 0.00 100 1008.6
20260502064421 54 31 0.0 3.0 0.00 0.01 0.00 100 1008.7
20260502064321 54 31 1.0 3.0 0.00 0.01 0.00 100 1008.6
20260502064221 54 37 1.0 3.0 0.00 0.01 0.00 100 1008.7
20260502064120 54 83 2.0 3.0 0.00 0.01 0.00 100 1008.7
20260502064020 54 55 2.0 3.0 0.00 0.01 0.00 100 1008.7
20260502063921 54 106 0.0 3.0 0.00 0.01 0.00 100 1008.7
20260502063821 54 106 0.0 3.0 0.00 0.01 0.00 100 1008.6
20260502063720 54 106 0.0 3.0 0.00 0.01 0.00 100 1008.7
20260502063622 54 106 0.0 3.0 0.00 0.01 0.00 100 1008.6
20260502063521 54 106 1.0 3.0 0.00 0.01 0.00 100 1008.6
20260502063420 54 103 1.0 3.0 0.00 0.01 0.00 100 1008.6
20260502063316 54 103 2.0 3.0 0.00 0.01 0.00 100 1008.5
20260502063211 54 23 1.0 2.0 0.00 0.01 0.00 100 1008.6
20260502063109 54 56 0.0 2.0 0.00 0.01 0.00 100 1008.5
20260502063004 54 16 1.0 2.0 0.00 0.01 0.00 100 1008.4
20260502062903 54 16 1.0 2.0 0.00 0.01 0.00 100 1008.4
20260502062803 54 17 0.0 2.0 0.00 0.01 0.00 100 1008.4
20260502062702 54 16 0.0 2.0 0.00 0.01 0.00 100 1008.4
20260502062602 54 16 1.0 2.0 0.00 0.01 0.00 100 1008.3
20260502062503 54 16 1.0 2.0 0.00 0.01 0.00 100 1008.3
20260502062402 54 82 0.0 2.0 0.00 0.01 0.00 100 1008.3
20260502062306 54 82 1.0 2.0 0.00 0.01 0.00 100 1008.2
20260502062202 54 82 1.0 2.0 0.00 0.01 0.00 100 1008.3
20260502062102 54 68 0.0 2.0 0.00 0.01 0.00 100 1008.3
20260502062003 54 90 0.0 2.0 0.00 0.01 0.00 100 1008.2
20260502061903 54 92 0.0 2.0 0.00 0.01 0.00 100 1008.3
20260502061803 54 90 0.0 2.0 0.00 0.01 0.00 100 1008.3
20260502061702 54 90 1.0 3.0 0.00 0.01 0.00 100 1008.3
20260502061603 54 90 0.0 3.0 0.00 0.01 0.00 100 1008.3
20260502061502 54 85 0.0 3.0 0.00 0.01 0.00 100 1008.2
20260502061403 54 82 1.0 3.0 0.00 0.01 0.00 100 1008.2
20260502061304 54 82 1.0 3.0 0.00 0.01 0.00 100 1008.3
20260502061204 54 110 1.0 3.0 0.00 0.01 0.00 100 1008.3
20260502061104 54 111 1.0 3.0 0.00 0.01 0.00 100 1008.4
20260502061008 54 120 0.0 3.0 0.00 0.01 0.00 100 1008.3
20260502060904 54 120 1.0 3.0 0.00 0.01 0.00 100 1008.4
20260502060802 54 120 2.0 3.0 0.00 0.01 0.00 100 1008.4
20260502060703 54 89 2.0 3.0 0.00 0.01 0.00 100 1008.3
20260502060604 54 73 2.0 3.0 0.00 0.01 0.00 100 1008.3
20260502060504 54 0 1.0 3.0 0.00 0.01 0.00 100 1008.3
20260502060404 54 27 1.0 3.0 0.00 0.01 0.00 100 1008.3
20260502060303 54 27 2.0 3.0 0.00 0.01 0.00 100 1008.3
20260502060202 54 45 2.0 3.0 0.00 0.01 0.00 100 1008.4
20260502060003 54 63 1.0 3.0 0.00 0.01 0.00 100 1008.4
20260502055901 54 58 1.0 3.0 0.00 0.01 0.00 100 1008.4
20260502055802 54 82 1.0 3.0 0.00 0.01 0.00 100 1008.4
20260502055703 54 96 1.0 3.0 0.00 0.01 0.00 100 1008.4
20260502055602 54 96 1.0 3.0 0.00 0.01 0.00 100 1008.4
20260502055504 54 93 1.0 3.0 0.00 0.01 0.00 100 1008.4
20260502055403 54 93 1.0 3.0 0.00 0.01 0.00 100 1008.4
20260502055305 54 102 0.0 3.0 0.00 0.01 0.00 100 1008.4
20260502055202 54 3 0.0 3.0 0.00 0.01 0.00 100 1008.4
20260502055103 54 3 0.0 3.0 0.00 0.01 0.00 100 1008.4
20260502055003 54 32 1.0 3.0 0.00 0.01 0.00 100 1008.4
20260502054903 54 32 1.0 4.0 0.00 0.01 0.00 100 1008.4
20260502054802 54 61 0.0 4.0 0.00 0.01 0.00 100 1008.5
20260502054703 54 135 0.0 4.0 0.00 0.01 0.00 100 1008.4
20260502054603 54 135 1.0 4.0 0.00 0.01 0.00 100 1008.5
20260502054503 54 35 1.0 4.0 0.00 0.01 0.00 100 1008.6
20260502054404 54 30 1.0 4.0 0.00 0.01 0.00 100 1008.5
20260502054303 54 14 1.0 4.0 0.00 0.01 0.00 100 1008.6
20260502054203 54 76 2.0 4.0 0.00 0.01 0.00 100 1008.5
20260502054102 54 76 2.0 4.0 0.00 0.01 0.00 100 1008.5
20260502054002 54 87 1.0 4.0 0.00 0.01 0.00 100 1008.6
20260502053903 54 0 0.0 4.0 0.00 0.01 0.00 100 1008.5
20260502053803 54 0 1.0 4.0 0.00 0.01 0.00 100 1008.6
20260502053703 54 0 1.0 4.0 0.00 0.01 0.00 100 1008.5
20260502053603 54 330 0.0 4.0 0.00 0.01 0.00 100 1008.5
20260502053503 54 6 0.0 4.0 0.00 0.01 0.00 100 1008.4
20260502053405 54 6 1.0 4.0 0.00 0.01 0.00 100 1008.5
20260502053303 54 6 2.0 7.0 0.00 0.01 0.00 100 1008.5
20260502053204 54 42 1.0 7.0 0.00 0.01 0.00 100 1008.6
20260502053104 54 86 2.0 7.0 0.00 0.01 0.00 100 1008.5
20260502053005 54 86 1.0 7.0 0.00 0.01 0.00 100 1008.4
20260502052905 54 104 0.0 7.0 0.00 0.01 0.00 100 1008.4
20260502052804 54 109 1.0 7.0 0.00 0.01 0.00 100 1008.4
20260502052703 54 109 2.0 7.0 0.00 0.01 0.00 100 1008.4
20260502052603 54 125 2.0 7.0 0.00 0.01 0.00 100 1008.4
20260502052503 54 87 2.0 7.0 0.00 0.01 0.00 100 1008.5
20260502052403 54 353 2.0 7.0 0.00 0.01 0.00 100 1008.5
20260502052305 54 51 2.0 6.0 0.00 0.01 0.00 100 1008.4
20260502052203 54 331 2.0 6.0 0.00 0.01 0.00 100 1008.5
20260502052102 54 72 3.0 6.0 0.00 0.01 0.00 100 1008.4
20260502052003 0 68 4.0 6.0 0.00 0.01 0.00 1008.4
20260502051902 0 56 4.0 6.0 0.00 0.01 0.00 1008.4
20260502051803 0 0.0 0.0 0.00 0.01 0.00 1008.3
20260502051704 0 0.0 0.0 0.00 0.01 0.00 1008.4
20260502051603 0 0.0 0.0 0.00 0.01 0.00 1008.3
20260502051503 0 0.0 0.0 0.00 0.01 0.00 1008.4
20260502051404 0 0.0 0.0 0.00 0.01 0.00 1008.3
20260502051304 0 0.0 0.0 0.00 0.01 0.00 1008.4
20260502051204 0 86 5.0 5.0 0.00 0.01 0.00 1008.3
20260502051104 0 86 5.0 5.0 0.00 0.01 0.00 1008.4
20260502050933 55 86 5.0 5.0 0.00 0.01 0.00 100 1008.3
20260502050833 55 86 5.0 5.0 0.00 0.01 0.00 100 1008.3
20260502050732 55 86 5.0 6.0 0.00 0.01 0.00 100 1008.3
20260502050614 55 86 5.0 6.0 0.00 0.01 0.00 100 1008.3
20260502050514 55 86 5.0 6.0 0.00 0.01 0.00 100 1008.3
20260502050418 55 86 5.0 6.0 0.00 0.01 0.00 100 1008.3
20260502050314 55 86 5.0 6.0 0.00 0.01 0.00 100 1008.3
20260502050213 55 86 5.0 6.0 0.00 0.01 0.00 100 1008.3
20260502050114 55 86 3.0 6.0 0.00 0.01 0.00 100 1008.3
20260502050013 55 63 2.0 6.0 0.00 0.01 0.00 100 1008.3
20260502045913 55 79 2.0 6.0 0.00 0.01 0.00 100 1008.3
20260502045813 55 79 2.0 6.0 0.00 0.01 0.00 100 1008.3
20260502045713 55 56 0.0 3.0 0.00 0.01 0.00 100 1008.3
20260502045612 55 56 1.0 3.0 0.00 0.01 0.00 100 1008.3
20260502045513 55 56 1.0 5.0 0.00 0.01 0.00 100 1008.4
20260502045412 55 54 1.0 5.0 0.00 0.01 0.00 100 1008.4
20260502045313 55 54 1.0 5.0 0.00 0.01 0.00 100 1008.3
20260502045213 55 161 0.0 5.0 0.00 0.01 0.00 100 1008.3
20260502045112 55 161 0.0 5.0 0.00 0.01 0.00 100 1008.3
20260502045014 55 161 0.0 5.0 0.00 0.01 0.00 100 1008.3
20260502044915 55 161 1.0 5.0 0.00 0.01 0.00 100 1008.3
20260502044814 55 100 0.0 5.0 0.00 0.01 0.00 100 1008.3
20260502044712 55 123 2.0 5.0 0.00 0.01 0.00 100 1008.3
20260502044612 55 123 2.0 5.0 0.00 0.01 0.00 100 1008.3
20260502044512 55 89 2.0 5.0 0.00 0.01 0.00 100 1008.4
20260502044414 55 87 1.0 5.0 0.00 0.01 0.00 100 1008.3
20260502044313 55 80 1.0 5.0 0.00 0.01 0.00 100 1008.2
20260502044213 54 75 2.0 5.0 0.00 0.01 0.00 100 1008.3
20260502044115 55 0 2.0 5.0 0.00 0.01 0.00 100 1008.3
20260502044013 55 113 2.0 7.0 0.00 0.01 0.00 100 1008.3
20260502043912 55 94 2.0 7.0 0.00 0.01 0.00 100 1008.2
20260502043811 54 35 1.0 7.0 0.00 0.01 0.00 100 1008.2
20260502043712 54 87 1.0 7.0 0.00 0.01 0.00 100 1008.2
20260502043613 54 72 2.0 7.0 0.00 0.01 0.00 100 1008.2
20260502043512 54 87 1.0 7.0 0.00 0.01 0.00 100 1008.2
20260502043412 54 93 1.0 7.0 0.00 0.01 0.00 100 1008.3
20260502043313 54 93 2.0 7.0 0.00 0.01 0.00 100 1008.2
20260502043212 54 99 4.0 7.0 0.00 0.01 0.00 100 1008.2
20260502043114 55 28 3.0 7.0 0.00 0.01 0.00 100 1008.3
20260502043012 55 35 2.0 6.0 0.00 0.01 0.00 100 1008.2
20260502042913 55 86 3.0 6.0 0.00 0.01 0.00 100 1008.3
20260502042813 55 63 3.0 6.0 0.00 0.01 0.00 100 1008.2
20260502042713 55 76 3.0 4.0 0.00 0.01 0.00 100 1008.2
20260502042612 55 182 2.0 4.0 0.00 0.01 0.00 100 1008.2
20260502042512 55 135 2.0 4.0 0.00 0.01 0.00 100 1008.2
20260502042412 55 94 2.0 5.0 0.00 0.01 0.00 100 1008.1
20260502042314 55 106 2.0 5.0 0.00 0.01 0.00 100 1008.1
20260502042211 55 93 2.0 6.0 0.00 0.01 0.00 100 1008.1
20260502042112 55 100 2.0 6.0 0.00 0.01 0.00 100 1008.1
20260502042013 55 27 2.0 6.0 0.00 0.01 0.00 100 1008.2
20260502041911 55 61 1.0 6.0 0.00 0.01 0.00 100 1008.1
20260502041812 55 66 1.0 6.0 0.00 0.01 0.00 100 1008.1
20260502041713 55 66 1.0 6.0 0.00 0.01 0.00 100 1008.1
20260502041612 55 51 2.0 6.0 0.00 0.01 0.00 100 1008.1
20260502041511 55 7 2.0 6.0 0.00 0.01 0.00 100 1008.1
20260502041413 55 76 3.0 6.0 0.00 0.01 0.00 100 1008.0
20260502041311 55 96 2.0 6.0 0.00 0.01 0.00 100 1008.0
20260502041212 55 97 1.0 4.0 0.00 0.01 0.00 100 1008.0
20260502041113 55 99 2.0 4.0 0.00 0.01 0.00 100 1008.1
20260502041011 55 89 2.0 4.0 0.00 0.01 0.00 100 1008.1
20260502040911 55 87 1.0 4.0 0.00 0.01 0.00 100 1008.1
20260502040811 55 41 1.0 4.0 0.00 0.01 0.00 100 1008.0
20260502040711 55 97 1.0 4.0 0.00 0.01 0.00 100 1008.0
20260502040616 55 94 1.0 4.0 0.00 0.01 0.00 100 1008.1
20260502040511 55 94 1.0 4.0 0.00 0.01 0.00 100 1008.0
20260502040411 55 87 1.0 4.0 0.00 0.01 0.00 100 1008.1
20260502040311 55 86 1.0 6.0 0.00 0.01 0.00 100 1008.1
20260502040210 55 68 0.0 10.0 0.00 0.01 0.00 100 1008.2
20260502040108 55 68 0.0 10.0 0.00 0.01 0.00 100 1008.1
20260502040006 55 65 0.0 10.0 0.00 0.01 0.00 100 1008.2
20260502035905 55 66 0.0 10.0 0.00 0.01 0.01 100 1008.2
20260502035807 55 80 0.0 10.0 0.00 0.01 0.01 100 1008.1
20260502035702 55 62 0.0 10.0 0.00 0.01 0.01 100 1008.2
20260502035602 55 62 1.0 10.0 0.00 0.01 0.01 100 1008.2
20260502035504 55 62 4.0 10.0 0.00 0.01 0.01 100 1008.2
20260502035403 55 87 3.0 10.0 0.00 0.01 0.01 100 1008.2
20260502035306 55 104 2.0 7.0 0.00 0.01 0.01 100 1008.2
20260502035203 55 87 2.0 7.0 0.00 0.01 0.01 100 1008.1
20260502035104 55 72 2.0 7.0 0.00 0.01 0.01 100 1008.2
20260502035005 55 21 2.0 7.0 0.00 0.01 0.01 100 1008.2
20260502034859 55 85 2.0 7.0 0.00 0.01 0.01 100 1008.2
20260502034755 55 85 2.0 7.0 0.00 0.01 0.01 100 1008.3
20260502034650 55 99 2.0 6.0 0.00 0.01 0.01 100 1008.1
20260502034546 55 219 2.0 6.0 0.00 0.01 0.01 100 1008.2
20260502034445 55 76 2.0 6.0 0.00 0.01 0.01 100 1008.2
20260502034342 55 63 2.0 6.0 0.00 0.01 0.01 100 1008.2
20260502034238 55 99 1.0 6.0 0.00 0.01 0.01 100 1008.2
20260502034138 55 96 1.0 6.0 0.00 0.01 0.01 100 1008.2
20260502034031 55 78 2.0 6.0 0.00 0.01 0.01 100 1008.2
20260502033932 55 83 4.0 6.0 0.00 0.01 0.01 100 1008.2
20260502033833 55 86 3.0 6.0 0.00 0.01 0.01 100 1008.2
20260502033731 55 66 2.0 4.0 0.00 0.01 0.01 100 1008.2
20260502033632 55 23 2.0 4.0 0.00 0.01 0.01 100 1008.2
20260502033528 55 59 2.0 4.0 0.00 0.01 0.01 100 1008.2
20260502033423 55 59 2.0 4.0 0.00 0.01 0.01 100 1008.2
20260502033323 55 103 2.0 4.0 0.00 0.01 0.01 100 1008.2
20260502033221 55 107 1.0 4.0 0.00 0.01 0.01 100 1008.1
20260502033112 55 338 1.0 4.0 0.00 0.01 0.01 100 1008.2
20260502033010 55 102 1.0 9.0 0.00 0.01 0.01 100 1008.2
20260502032911 55 180 1.0 9.0 0.00 0.01 0.01 100 1008.1
20260502032810 55 186 2.0 9.0 0.00 0.01 0.01 100 1008.2
20260502032712 55 329 2.0 9.0 0.00 0.01 0.01 100 1008.2
20260502032610 55 8 2.0 9.0 0.00 0.01 0.01 100 1008.2
20260502032512 55 145 2.0 9.0 0.00 0.01 0.01 100 1008.2
20260502032411 55 75 2.0 9.0 0.00 0.01 0.01 100 1008.2
20260502032312 55 94 2.0 9.0 0.00 0.01 0.01 100 1008.2
20260502032211 55 63 2.0 9.0 0.00 0.01 0.01 100 1008.1
20260502032111 55 13 1.0 9.0 0.00 0.01 0.01 100 1008.1
20260502032012 56 82 1.0 4.0 0.00 0.01 0.01 100 1008.2
20260502031911 55 82 2.0 4.0 0.00 0.01 0.01 100 1008.1
20260502031813 55 72 1.0 4.0 0.00 0.01 0.01 100 1008.1
20260502031711 56 117 1.0 4.0 0.00 0.01 0.01 100 1008.1
20260502031610 56 65 2.0 4.0 0.00 0.01 0.01 100 1008.0
20260502031511 56 55 2.0 5.0 0.00 0.01 0.01 100 1008.1
20260502031410 56 93 1.0 5.0 0.00 0.01 0.01 100 1008.1
20260502031312 56 97 0.0 5.0 0.00 0.01 0.01 100 1008.0
20260502031211 56 97 0.0 5.0 0.00 0.01 0.01 100 1008.0
20260502031112 56 97 0.0 7.0 0.00 0.01 0.01 100 1007.9
20260502031011 55 97 0.0 7.0 0.00 0.01 0.01 100 1007.8
20260502030910 56 97 1.0 7.0 0.00 0.01 0.01 100 1007.9
20260502030811 55 93 1.0 7.0 0.00 0.01 0.01 100 1007.9
20260502030710 56 93 2.0 7.0 0.00 0.01 0.01 100 1007.8
20260502030610 55 59 1.0 7.0 0.00 0.01 0.01 100 1007.8
20260502030510 55 27 1.0 7.0 0.00 0.01 0.01 100 1007.8
20260502030411 55 27 2.0 7.0 0.00 0.01 0.01 100 1007.8
20260502030311 55 24 2.0 7.0 0.00 0.01 0.01 100 1007.8
20260502030211 55 41 2.0 7.0 0.00 0.01 0.01 100 1007.8
20260502030110 55 92 1.0 5.0 0.00 0.01 0.01 100 1007.8
20260502030010 55 78 0.0 5.0 0.00 0.01 0.01 100 1007.8
20260502025910 55 78 0.0 5.0 0.00 0.01 0.01 100 1007.6
20260502025810 55 78 0.0 5.0 0.00 0.01 0.01 100 1007.7
20260502025710 55 78 2.0 5.0 0.00 0.01 0.01 100 1007.6
20260502025610 55 76 1.0 5.0 0.00 0.01 0.01 100 1007.6
20260502025511 55 111 1.0 5.0 0.00 0.01 0.01 100 1007.6
20260502025412 55 11 1.0 3.0 0.00 0.01 0.01 100 1007.6
20260502025310 55 10 1.0 3.0 0.00 0.01 0.01 100 1007.6
20260502025214 55 114 1.0 2.0 0.00 0.01 0.01 100 1007.5
20260502025111 55 114 1.0 2.0 0.00 0.01 0.01 100 1007.4
20260502025011 55 63 1.0 4.0 0.00 0.01 0.01 100 1007.4
20260502024909 55 65 0.0 6.0 0.00 0.01 0.01 100 1007.4
20260502024809 55 87 0.0 6.0 0.00 0.01 0.01 100 1007.3
20260502024709 55 87 1.0 6.0 0.00 0.01 0.01 100 1007.4
20260502024609 55 86 1.0 6.0 0.00 0.01 0.01 100 1007.4
20260502024511 55 66 1.0 6.0 0.00 0.01 0.01 100 1007.3
20260502024410 55 66 1.0 6.0 0.00 0.01 0.01 100 1007.4
20260502024311 55 66 1.0 6.0 0.00 0.01 0.01 100 1007.2
20260502024210 55 75 1.0 6.0 0.00 0.01 0.01 100 1007.2
20260502024111 55 79 2.0 6.0 0.00 0.01 0.01 100 1007.2
20260502024011 55 138 2.0 6.0 0.00 0.01 0.01 100 1007.2
20260502023909 55 104 0.0 5.0 0.00 0.01 0.01 100 1007.2
20260502023809 55 104 0.0 5.0 0.00 0.01 0.01 100 1007.1
20260502023711 55 96 1.0 5.0 0.00 0.01 0.01 100 1007.1
20260502023610 55 96 1.0 5.0 0.00 0.01 0.01 100 1007.1
20260502023511 55 100 0.0 5.0 0.00 0.01 0.01 100 1007.1
20260502023411 55 69 0.0 5.0 0.00 0.01 0.01 100 1007.1
20260502023309 55 69 1.0 5.0 0.00 0.01 0.01 100 1007.0
20260502023211 55 68 2.0 5.0 0.00 0.01 0.01 100 1007.0
20260502023110 55 76 2.0 5.0 0.00 0.01 0.01 100 1007.0
20260502023009 55 99 2.0 5.0 0.00 0.01 0.01 100 1006.9
20260502022911 55 66 1.0 3.0 0.00 0.01 0.01 100 1006.8
20260502022811 55 65 0.0 3.0 0.00 0.01 0.01 100 1006.7
20260502022710 55 65 1.0 3.0 0.00 0.01 0.01 100 1006.6
20260502022611 55 65 1.0 4.0 0.00 0.01 0.01 100 1006.6
20260502022509 55 102 1.0 4.0 0.00 0.01 0.01 100 1006.4
20260502022410 55 48 0.0 4.0 0.00 0.01 0.01 100 1006.4
20260502022310 55 48 1.0 4.0 0.00 0.01 0.01 100 1006.3
20260502022210 55 48 1.0 4.0 0.00 0.01 0.01 100 1006.3
20260502022109 55 47 2.0 4.0 0.00 0.01 0.01 100 1006.3
20260502022010 55 37 2.0 4.0 0.00 0.01 0.01 100 1006.3
20260502021914 55 85 1.0 4.0 0.00 0.01 0.01 100 1006.3
20260502021809 55 93 1.0 4.0 0.00 0.01 0.01 100 1006.3
20260502021707 55 79 1.0 4.0 0.00 0.01 0.01 100 1006.2
20260502021603 55 100 1.0 9.0 0.00 0.01 0.01 100 1006.2
20260502021503 55 100 1.0 9.0 0.00 0.01 0.01 100 1006.3
20260502021403 55 90 1.0 9.0 0.00 0.01 0.01 100 1006.3
20260502021302 55 87 1.0 9.0 0.00 0.01 0.01 100 1006.3
20260502021204 55 87 1.0 9.0 0.00 0.01 0.01 100 1006.3
20260502021107 56 87 1.0 9.0 0.00 0.01 0.01 100 1006.3
20260502021003 56 109 0.0 9.0 0.00 0.01 0.01 100 1006.3
20260502020903 56 109 1.0 9.0 0.00 0.01 0.01 100 1006.3
20260502020802 56 63 2.0 9.0 0.00 0.01 0.01 100 1006.4
20260502020703 56 63 2.0 9.0 0.00 0.01 0.01 100 1006.3
20260502020603 56 42 1.0 6.0 0.00 0.01 0.01 100 1006.3
20260502020502 56 62 1.0 6.0 0.00 0.01 0.01 100 1006.4
20260502020403 56 37 2.0 6.0 0.00 0.01 0.01 100 1006.4
20260502020302 56 75 2.0 6.0 0.00 0.01 0.01 100 1006.3
20260502020203 56 331 2.0 6.0 0.00 0.01 0.01 100 1006.3
20260502020103 56 324 1.0 6.0 0.00 0.01 0.01 100 1006.3
20260502020003 56 94 2.0 6.0 0.00 0.01 0.01 100 1006.3
20260502015901 56 65 2.0 6.0 0.00 0.01 0.01 100 1006.3
20260502015803 56 30 2.0 6.0 0.00 0.01 0.01 100 1006.3
20260502015703 56 27 3.0 6.0 0.00 0.01 0.01 100 1006.4
20260502015602 56 86 2.0 4.0 0.00 0.01 0.01 100 1006.3
20260502015504 56 0 1.0 4.0 0.00 0.01 0.01 100 1006.4
20260502015405 56 327 1.0 4.0 0.00 0.01 0.01 100 1006.3
20260502015305 56 79 1.0 4.0 0.00 0.01 0.01 100 1006.3
20260502015201 56 72 1.0 4.0 0.00 0.01 0.01 100 1006.3
20260502015103 56 72 2.0 4.0 0.00 0.01 0.01 100 1006.3
20260502015004 56 110 1.0 3.0 0.00 0.01 0.01 100 1006.3
20260502014902 56 102 1.0 4.0 0.00 0.01 0.01 100 1006.3
20260502014803 56 99 1.0 4.0 0.00 0.01 0.01 100 1006.3
20260502014702 56 72 1.0 4.0 0.00 0.01 0.01 100 1006.3
20260502014603 56 86 2.0 4.0 0.00 0.01 0.01 100 1006.3
20260502014505 56 83 2.0 6.0 0.00 0.01 0.01 100 1006.3
20260502014402 56 25 2.0 6.0 0.00 0.01 0.01 100 1006.2
20260502014303 56 99 2.0 6.0 0.00 0.01 0.01 100 1006.1
20260502014204 56 87 1.0 6.0 0.00 0.01 0.01 100 1006.2
20260502014103 56 290 2.0 7.0 0.00 0.01 0.01 100 1006.2
20260502014003 56 65 2.0 7.0 0.00 0.01 0.01 100 1006.2
20260502013904 56 114 1.0 7.0 0.00 0.01 0.01 100 1006.2
20260502013802 56 99 1.0 7.0 0.00 0.01 0.01 100 1006.1
20260502013703 56 103 2.0 7.0 0.00 0.01 0.01 100 1006.1
20260502013603 56 102 2.0 7.0 0.00 0.01 0.01 100 1006.0
20260502013505 56 109 1.0 7.0 0.00 0.01 0.01 100 1006.0
20260502013403 56 109 1.0 7.0 0.00 0.01 0.01 100 1006.0
20260502013303 56 109 2.0 7.0 0.00 0.01 0.01 100 1006.0
20260502013204 56 110 3.0 7.0 0.00 0.01 0.01 100 1006.1
20260502013104 56 76 2.0 7.0 0.00 0.01 0.01 100 1005.9
20260502013005 56 107 2.0 7.0 0.00 0.01 0.01 100 1005.9
20260502012902 56 75 1.0 7.0 0.00 0.01 0.01 100 1005.9
20260502012803 56 0 2.0 7.0 0.00 0.01 0.01 100 1005.9
20260502012703 56 259 2.0 7.0 0.00 0.01 0.01 100 1005.9
20260502012602 56 10 1.0 7.0 0.00 0.01 0.01 100 1005.9
20260502012504 56 4 1.0 7.0 0.00 0.01 0.01 100 1005.8
20260502012403 56 102 2.0 7.0 0.00 0.01 0.01 100 1005.8
20260502012306 56 102 3.0 7.0 0.00 0.01 0.01 100 1005.8
20260502012204 56 0 3.0 7.0 0.00 0.01 0.01 100 1005.8
20260502012104 56 65 3.0 7.0 0.00 0.01 0.01 100 1005.9
20260502012003 56 30 1.0 7.0 0.00 0.01 0.01 100 1006.0
20260502011902 56 44 1.0 7.0 0.00 0.01 0.01 100 1005.8
20260502011803 57 333 0.0 7.0 0.00 0.01 0.01 100 1005.9
20260502011704 57 42 2.0 7.0 0.00 0.01 0.01 100 1005.9
20260502011602 57 42 2.0 7.0 0.00 0.01 0.01 100 1005.8
20260502011503 57 87 2.0 5.0 0.00 0.01 0.01 100 1006.0
20260502011402 57 82 2.0 5.0 0.00 0.01 0.01 100 1006.0
20260502011303 57 73 1.0 5.0 0.00 0.01 0.01 100 1006.1
20260502011204 57 73 2.0 5.0 0.00 0.01 0.01 100 1006.2
20260502011104 57 96 2.0 5.0 0.00 0.01 0.01 100 1006.2
20260502011004 57 66 1.0 5.0 0.00 0.01 0.01 100 1006.3
20260502010902 57 42 1.0 4.0 0.00 0.01 0.01 100 1006.4
20260502010803 57 44 1.0 4.0 0.00 0.01 0.01 100 1006.4
20260502010704 57 32 1.0 4.0 0.00 0.01 0.01 100 1006.5
20260502010602 57 32 2.0 4.0 0.00 0.01 0.01 100 1006.5
20260502010503 57 100 2.0 4.0 0.00 0.01 0.01 100 1006.5
20260502010403 57 71 1.0 4.0 0.00 0.01 0.01 100 1006.6
20260502010302 57 193 0.0 4.0 0.00 0.01 0.01 100 1006.5
20260502010202 57 193 1.0 4.0 0.00 0.01 0.01 100 1006.6
20260502010121 57 86 1.0 4.0 0.00 0.01 0.01 100 1006.4
20260502010110 57 193 1.0 4.0 0.00 0.01 0.01 100 1006.5
20260502010050 57 86 1.0 4.0 0.00 0.01 0.01 100 1006.5
20260502010025 57 86 0.0 4.0 0.00 0.01 0.01 100 1006.5
20260502005704 57 87 1.0 4.0 0.00 0.01 0.01 100 1006.3
20260502005602 57 316 2.0 4.0 0.00 0.01 0.01 100 1006.2
20260502005504 58 240 1.0 4.0 0.00 0.01 0.01 100 1006.1
20260502005403 58 165 1.0 4.0 0.00 0.01 0.01 100 1006.1
20260502005306 58 63 1.0 4.0 0.00 0.01 0.01 100 1006.0
20260502005202 58 61 1.0 4.0 0.00 0.01 0.01 100 1006.0
20260502005102 58 319 2.0 4.0 0.00 0.01 0.01 100 1005.9
20260502005003 58 100 2.0 4.0 0.00 0.01 0.01 100 1005.9
20260502004907 58 1 2.0 6.0 0.00 0.01 0.01 100 1005.9
20260502004802 58 123 2.0 6.0 0.00 0.01 0.01 100 1005.7
20260502004703 58 142 2.0 6.0 0.00 0.01 0.01 100 1005.7
20260502004603 58 324 1.0 6.0 0.00 0.01 0.01 100 1005.6
20260502004502 58 85 1.0 6.0 0.00 0.01 0.01 100 1005.5
20260502004402 58 137 1.0 7.0 0.00 0.01 0.01 100 1005.4
20260502004304 58 137 1.0 7.0 0.00 0.01 0.01 100 1005.4
20260502004204 58 137 2.0 7.0 0.00 0.01 0.01 100 1005.3
20260502004109 58 87 2.0 7.0 0.00 0.01 0.01 100 1005.2
20260502004003 58 279 2.0 7.0 0.00 0.01 0.01 100 1005.1
20260502003903 58 289 2.0 7.0 0.00 0.01 0.01 100 1005.1
20260502003803 58 73 1.0 7.0 0.00 0.01 0.01 100 1005.0
20260502003703 58 45 2.0 7.0 0.00 0.01 0.01 100 1005.1
20260502003605 58 65 3.0 9.0 0.00 0.01 0.01 100 1005.0
20260502003504 58 86 2.0 9.0 0.00 0.01 0.01 100 1005.1
20260502003403 58 293 2.0 9.0 0.00 0.01 0.01 100 1005.1
20260502003303 58 47 2.0 9.0 0.00 0.01 0.01 100 1005.1
20260502003203 58 86 2.0 9.0 0.00 0.01 0.01 100 1005.1
20260502003102 58 118 2.0 9.0 0.00 0.01 0.01 100 1005.0
20260502003002 58 87 2.0 9.0 0.00 0.01 0.01 100 1005.0
20260502002904 58 27 1.0 9.0 0.00 0.01 0.01 100 1004.9
20260502002803 58 25 3.0 9.0 0.00 0.01 0.01 100 1005.0
20260502002702 58 24 3.0 9.0 0.00 0.01 0.01 100 1004.9
20260502002602 58 62 2.0 6.0 0.00 0.01 0.01 100 1005.0
20260502002504 58 31 2.0 6.0 0.00 0.01 0.01 100 1004.9
20260502002403 58 96 1.0 6.0 0.00 0.01 0.01 100 1005.0
20260502002305 58 78 2.0 6.0 0.00 0.01 0.01 100 1005.0
20260502002203 58 75 3.0 6.0 0.00 0.01 0.01 100 1005.1
20260502002104 59 83 3.0 6.0 0.00 0.01 0.01 100 1005.2
20260502002005 59 133 2.0 4.0 0.00 0.01 0.01 100 1005.3
20260502001904 59 90 0.0 4.0 0.00 0.01 0.01 100 1005.3
20260502001802 59 83 0.0 4.0 0.00 0.01 0.01 100 1005.5
20260502001703 59 83 0.0 4.0 0.00 0.01 0.01 100 1005.7
20260502001609 59 83 1.0 4.0 0.00 0.01 0.01 100 1005.7
20260502001503 59 83 2.0 4.0 0.00 0.01 0.01 100 1005.8
20260502001402 59 83 2.0 4.0 0.00 0.01 0.01 100 1005.9
20260502001302 59 344 1.0 4.0 0.00 0.01 0.01 100 1006.0
20260502001203 59 183 0.0 2.0 0.00 0.01 0.01 100 1006.0
20260502001102 59 183 1.0 3.0 0.00 0.01 0.01 100 1006.0
20260502001004 59 183 1.0 3.0 0.00 0.01 0.01 100 1005.9
20260502000903 59 76 1.0 3.0 0.00 0.01 0.01 100 1005.9
20260502000805 59 76 1.0 3.0 0.00 0.01 0.01 100 1005.8
20260502000703 59 82 0.0 3.0 0.00 0.01 0.01 100 1005.8
20260502000602 59 82 0.0 3.0 0.00 0.01 0.01 100 1005.7
20260502000502 59 82 0.0 3.0 0.00 0.01 0.01 100 1005.7
20260502000403 59 82 0.0 4.0 0.00 0.01 0.01 100 1005.7
20260502000303 59 82 1.0 4.0 0.00 0.01 0.01 100 1005.5
20260502000203 59 82 1.0 4.0 0.00 0.01 0.01 100 1005.4
20260502000004 59 31 0.0 4.0 0.00 0.01 0.01 100 1005.1
20260501235902 59 31 1.0 4.0 0.00 0.01 0.01 100 1005.1
20260501235803 59 31 1.0 4.0 0.00 0.01 0.01 100 1005.0
20260501235704 59 326 0.0 4.0 0.00 0.01 0.01 100 1005.0
20260501235601 59 326 1.0 4.0 0.00 0.01 0.01 100 1005.0
20260501235502 59 326 1.0 4.0 0.00 0.01 0.01 100 1004.9
20260501235403 59 103 0.0 3.0 0.00 0.01 0.01 100 1004.9
20260501235305 59 103 1.0 3.0 0.00 0.01 0.01 100 1004.9
20260501235203 59 104 1.0 3.0 0.00 0.01 0.01 100 1004.9
20260501235103 59 123 0.0 3.0 0.00 0.01 0.01 100 1004.9
20260501235003 59 59 0.0 3.0 0.00 0.01 0.01 100 1004.9
20260501234902 59 59 0.0 3.0 0.00 0.01 0.01 100 1004.9
20260501234804 59 87 0.0 3.0 0.00 0.01 0.01 100 1005.0
20260501234703 59 87 1.0 3.0 0.00 0.01 0.01 100 1005.0
20260501234603 59 89 1.0 3.0 0.00 0.01 0.01 100 1005.1
20260501234503 59 89 1.0 3.0 0.00 0.01 0.01 100 1005.0
20260501234401 59 28 0.0 3.0 0.00 0.01 0.01 100 1005.1
20260501234300 59 28 1.0 3.0 0.00 0.01 0.01 100 1005.1
20260501234155 59 59 1.0 3.0 0.00 0.01 0.01 100 1005.2
20260501234053 59 80 0.0 0.0 0.00 0.01 0.01 100 1005.2
20260501233954 59 80 0.0 0.0 0.00 0.01 0.01 100 1005.1
20260501233850 59 66 0.0 0.0 0.00 0.01 0.01 100 1005.1
20260501233743 59 48 0.0 0.0 0.00 0.01 0.01 100 1005.1
20260501233632 59 48 0.0 1.0 0.00 0.01 0.01 100 1005.0
20260501233531 59 48 0.0 2.0 0.00 0.01 0.01 100 1005.0
20260501233431 59 48 0.0 3.0 0.00 0.01 0.01 100 1005.1
20260501233333 59 45 0.0 3.0 0.00 0.01 0.01 100 1005.2
20260501233233 59 45 0.0 4.0 0.00 0.01 0.01 100 1005.2
20260501233131 59 45 0.0 4.0 0.00 0.01 0.01 100 1005.2
20260501233032 59 45 0.0 4.0 0.00 0.01 0.01 100 1005.1
20260501232933 59 45 0.0 4.0 0.00 0.01 0.01 100 1005.0
20260501232832 59 45 0.0 4.0 0.00 0.01 0.01 100 1005.1
20260501232731 59 45 1.0 4.0 0.00 0.01 0.01 100 1005.0
20260501232632 59 32 1.0 4.0 0.00 0.01 0.01 100 1004.9
20260501232531 59 86 1.0 4.0 0.00 0.01 0.01 100 1005.0
20260501232432 59 75 1.0 4.0 0.00 0.01 0.01 100 1004.9
20260501232332 59 75 2.0 4.0 0.00 0.01 0.01 100 1004.9
20260501232231 59 73 1.0 3.0 0.00 0.01 0.01 100 1004.8
20260501232130 59 73 0.0 3.0 0.00 0.01 0.01 100 1004.8
20260501232031 59 73 1.0 3.0 0.00 0.01 0.01 100 1004.9
20260501231933 59 107 1.0 3.0 0.00 0.01 0.01 100 1004.9
20260501231816 59 87 0.0 2.0 0.00 0.01 0.01 100 1004.9
20260501231705 59 86 1.0 2.0 0.00 0.01 0.01 100 1004.9
20260501231605 59 86 0.0 2.0 0.00 0.01 0.01 100 1004.9
20260501231504 59 86 1.0 2.0 0.00 0.01 0.01 100 1004.7
20260501231406 59 86 1.0 2.0 0.00 0.01 0.01 100 1004.7
20260501231305 59 86 1.0 5.0 0.00 0.01 0.01 100 1004.6
20260501231206 59 0 1.0 5.0 0.00 0.01 0.01 100 1004.1
20260501231104 59 0 1.0 5.0 0.00 0.01 0.01 100 1004.1
20260501231004 59 0 1.0 5.0 0.00 0.01 0.01 100 1004.0
20260501230906 59 0 0.0 5.0 0.00 0.01 0.01 100 1003.8
20260501230806 59 0 0.0 5.0 0.00 0.01 0.01 100 1003.6
20260501230704 59 7 2.0 5.0 0.00 0.01 0.01 100 1003.5
20260501230604 59 7 2.0 5.0 0.00 0.01 0.01 100 1003.4
20260501230505 59 7 2.0 5.0 0.00 0.01 0.01 100 1003.4
20260501230404 59 1 2.0 5.0 0.00 0.01 0.01 100 1003.3
20260501230304 59 350 1.0 3.0 0.00 0.01 0.01 100 1003.4
20260501230219 59 355 0.0 3.0 0.00 0.01 0.01 100 1003.4
20260501230104 59 47 1.0 3.0 0.00 0.01 0.01 100 1003.3
20260501230004 59 47 2.0 3.0 0.00 0.01 0.01 100 1003.3
20260501225904 59 47 2.0 3.0 0.00 0.01 0.01 100 1003.2
20260501225804 59 90 1.0 3.0 0.00 0.01 0.01 100 1003.2
20260501225704 59 73 1.0 3.0 0.00 0.01 0.01 100 1003.1
20260501225604 59 41 1.0 3.0 0.00 0.01 0.01 100 1003.1
20260501225505 59 289 0.0 3.0 0.00 0.01 0.01 100 1003.1
20260501225412 59 292 0.0 4.0 0.00 0.01 0.01 100 1003.1
20260501225306 59 292 1.0 4.0 0.00 0.01 0.01 100 1003.3
20260501225204 59 106 1.0 4.0 0.00 0.01 0.01 100 1003.3
20260501225104 59 323 1.0 4.0 0.00 0.01 0.01 100 1003.4
20260501225006 59 261 1.0 5.0 0.00 0.01 0.01 100 1003.5
20260501224906 59 76 2.0 5.0 0.00 0.01 0.01 100 1003.5
20260501224804 59 145 2.0 5.0 0.00 0.01 0.01 100 1003.5
20260501224706 59 61 2.0 5.0 0.00 0.01 0.01 100 1003.5
20260501224607 59 59 1.0 5.0 0.00 0.01 0.01 100 1003.5
20260501224505 59 0 1.0 5.0 0.00 0.01 0.01 100 1003.5
20260501224404 59 123 1.0 5.0 0.00 0.01 0.01 100 1003.5
20260501224305 59 110 1.0 5.0 0.00 0.01 0.01 100 1003.4
20260501224204 59 111 1.0 5.0 0.00 0.01 0.01 100 1003.4
20260501224104 59 66 2.0 5.0 0.00 0.01 0.01 100 1003.3
20260501224005 59 121 2.0 4.0 0.00 0.01 0.01 100 1003.1
20260501223904 59 83 2.0 4.0 0.00 0.01 0.01 100 1003.0
20260501223804 59 30 2.0 5.0 0.00 0.01 0.01 100 1003.1
20260501223704 59 111 2.0 5.0 0.00 0.01 0.01 100 1003.2
20260501223604 60 69 2.0 5.0 0.00 0.01 0.01 100 1003.3
20260501223507 60 120 2.0 5.0 0.00 0.01 0.01 100 1003.3
20260501223404 60 68 2.0 5.0 0.00 0.01 0.01 100 1003.5
20260501223304 60 274 1.0 5.0 0.00 0.01 0.01 100 1003.5
20260501223203 60 312 1.0 5.0 0.00 0.01 0.01 100 1003.5
20260501223104 60 312 2.0 5.0 0.00 0.01 0.01 100 1003.5
20260501223005 60 338 3.0 5.0 0.00 0.01 0.01 100 1003.1
20260501222904 60 76 3.0 5.0 0.00 0.01 0.01 100 1002.9
20260501222803 60 0 2.0 5.0 0.00 0.01 0.01 100 1002.9
20260501222703 60 162 2.0 5.0 0.00 0.01 0.01 100 1002.4
20260501222603 60 11 1.0 5.0 0.00 0.01 0.01 100 1002.4
20260501222504 60 11 1.0 5.0 0.00 0.01 0.01 100 1002.1
20260501222403 60 24 1.0 5.0 0.00 0.01 0.01 100 1001.9
20260501222305 60 305 2.0 5.0 0.00 0.01 0.01 100 1001.9
20260501222204 60 111 3.0 5.0 0.00 0.01 0.01 100 1001.7
20260501222103 60 65 3.0 5.0 0.00 0.01 0.01 100 1001.6
20260501222005 60 121 1.0 5.0 0.00 0.01 0.01 100 1001.6
20260501221904 60 147 1.0 6.0 0.00 0.01 0.01 100 1001.6
20260501221803 60 144 1.0 6.0 0.00 0.01 0.01 100 1001.7
20260501221703 60 94 1.0 6.0 0.00 0.01 0.01 100 1001.7
20260501221603 60 93 2.0 6.0 0.00 0.01 0.01 100 1001.9
20260501221503 60 94 2.0 6.0 0.00 0.01 0.01 100 1002.0
20260501221403 60 28 1.0 6.0 0.00 0.01 0.01 100 1001.9
20260501221303 60 28 2.0 6.0 0.00 0.01 0.01 100 1001.8
20260501221204 60 358 2.0 6.0 0.00 0.01 0.01 100 1001.8
20260501221104 60 86 2.0 6.0 0.00 0.01 0.01 100 1001.7
20260501221004 60 30 2.0 6.0 0.00 0.01 0.01 100 1001.9
20260501220903 60 114 2.0 5.0 0.00 0.01 0.01 100 1001.9
20260501220804 60 92 2.0 5.0 0.00 0.01 0.01 100 1002.0
20260501220704 60 24 3.0 6.0 0.00 0.01 0.01 100 1002.1
20260501220604 60 0 3.0 6.0 0.00 0.01 0.01 100 1002.1
20260501220504 60 114 3.0 6.0 0.00 0.01 0.01 100 1002.2
20260501220403 60 65 2.0 6.0 0.00 0.01 0.01 100 1002.4
20260501220255 60 92 1.0 6.0 0.00 0.01 0.01 100 1002.5
20260501220153 60 62 1.0 6.0 0.00 0.01 0.01 100 1002.7
20260501220049 60 61 1.0 6.0 0.00 0.01 0.01 100 1002.8
20260501215945 60 69 1.0 6.0 0.00 0.01 0.01 100 1002.8
20260501215843 60 83 1.0 6.0 0.00 0.01 0.01 100 1002.8
20260501215738 60 334 2.0 6.0 0.00 0.01 0.01 100 1002.8
20260501215633 60 1 2.0 9.0 0.00 0.01 0.01 100 1002.8
20260501215533 60 121 2.0 9.0 0.00 0.01 0.01 100 1002.6
20260501215432 60 123 2.0 9.0 0.00 0.01 0.01 100 1002.6
20260501215331 60 104 2.0 9.0 0.00 0.01 0.01 100 1002.7
20260501215231 60 104 2.0 9.0 0.00 0.01 0.01 100 1002.8
20260501215131 60 158 2.0 9.0 0.00 0.01 0.01 100 1002.9
20260501215030 60 104 2.0 9.0 0.00 0.01 0.01 100 1003.0
20260501214932 60 94 2.0 9.0 0.00 0.01 0.01 100 1003.1
20260501214832 60 63 3.0 9.0 0.00 0.01 0.01 100 1003.1
20260501214725 60 3 2.0 6.0 0.00 0.01 0.01 100 1003.1
20260501214623 60 4 2.0 5.0 0.00 0.01 0.01 100 1003.2
20260501214520 60 100 1.0 5.0 0.00 0.01 0.01 100 1003.1
20260501214418 60 312 0.0 5.0 0.00 0.01 0.01 100 1003.2
20260501214304 60 310 1.0 5.0 0.00 0.01 0.01 100 1003.1
20260501214203 60 16 1.0 5.0 0.00 0.01 0.01 100 1003.2
20260501214103 60 52 1.0 5.0 0.00 0.01 0.01 100 1003.3
20260501214003 60 100 1.0 5.0 0.00 0.01 0.01 100 1003.3
20260501213904 60 100 2.0 5.0 0.00 0.01 0.01 100 1003.4
20260501213804 60 71 3.0 5.0 0.00 0.01 0.01 100 1003.8
20260501213702 60 96 3.0 5.0 0.00 0.01 0.01 100 1004.0
20260501213602 60 68 2.0 5.0 0.00 0.01 0.01 100 1004.0
20260501213451 60 94 1.0 6.0 0.00 0.01 0.01 100 1004.0
20260501213340 60 94 1.0 6.0 0.00 0.01 0.01 100 1004.0
20260501213241 60 89 1.0 6.0 0.00 0.01 0.01 100 1003.9
20260501213137 60 89 1.0 6.0 0.00 0.01 0.01 100 1003.9
20260501213033 60 73 1.0 6.0 0.00 0.01 0.01 100 1003.8
20260501212931 60 80 2.0 6.0 0.00 0.01 0.01 100 1003.8
20260501212832 60 327 2.0 6.0 0.00 0.01 0.01 100 1003.6
20260501212730 60 18 2.0 6.0 0.00 0.01 0.01 100 1003.7
20260501212628 60 69 2.0 6.0 0.00 0.01 0.01 100 1003.7
20260501212525 60 42 2.0 4.0 0.00 0.01 0.01 100 1003.7
20260501212425 60 96 2.0 4.0 0.00 0.01 0.01 100 1003.6
20260501212320 60 82 2.0 6.0 0.00 0.01 0.01 100 1003.6
20260501212215 60 241 1.0 6.0 0.00 0.01 0.01 100 1003.5
20260501212103 60 100 1.0 6.0 0.00 0.01 0.01 100 1003.5
20260501212003 60 151 1.0 6.0 0.00 0.01 0.01 100 1003.5
20260501211902 60 113 1.0 6.0 0.00 0.01 0.01 100 1003.4
20260501211802 60 109 2.0 6.0 0.00 0.01 0.01 100 1003.3
20260501211703 61 116 2.0 6.0 0.00 0.01 0.01 100 1003.2
20260501211604 60 34 2.0 6.0 0.00 0.01 0.01 100 1003.0
20260501211452 61 58 2.0 6.0 0.00 0.01 0.01 100 1002.8
20260501211348 61 75 2.0 4.0 0.00 0.01 0.01 100 1002.9
20260501211240 61 32 2.0 4.0 0.00 0.01 0.01 100 1003.3
20260501211134 61 111 1.0 4.0 0.00 0.01 0.01 100 1003.5
20260501211031 61 111 1.0 5.0 0.00 0.01 0.01 100 1003.7
20260501210932 61 89 1.0 5.0 0.00 0.01 0.01 100 1003.7
20260501210830 61 87 1.0 7.0 0.00 0.01 0.01 100 1003.7
20260501210730 61 295 0.0 7.0 0.00 0.01 0.01 100 1003.6
20260501210622 61 295 1.0 7.0 0.00 0.01 0.01 100 1003.5
20260501210517 61 289 2.0 7.0 0.00 0.01 0.01 100 1003.5
20260501210410 61 52 1.0 7.0 0.00 0.01 0.01 100 1003.5
20260501210303 61 63 1.0 7.0 0.00 0.01 0.01 100 1003.4
20260501210202 61 62 2.0 7.0 0.00 0.01 0.01 100 1003.4
20260501210104 61 65 3.0 7.0 0.00 0.01 0.01 100 1003.4
20260501210004 61 102 2.0 7.0 0.00 0.01 0.01 100 1003.4
20260501205902 61 73 1.0 2.0 0.00 0.01 0.01 100 1003.4
20260501205802 61 69 1.0 2.0 0.00 0.01 0.01 100 1003.5
20260501205702 61 68 1.0 2.0 0.00 0.01 0.01 100 1003.4
20260501205604 61 133 0.0 2.0 0.00 0.01 0.01 100 1003.5
20260501205501 61 133 0.0 3.0 0.00 0.01 0.01 100 1003.5
20260501205403 61 133 0.0 3.0 0.00 0.01 0.01 100 1003.4
20260501205305 61 133 0.0 3.0 0.00 0.01 0.01 100 1003.3
20260501205202 61 133 0.0 3.0 0.00 0.01 0.01 100 1003.2
20260501205104 61 133 0.0 4.0 0.00 0.01 0.01 100 1002.9
20260501205003 61 133 0.0 4.0 0.00 0.01 0.01 100 1002.8
20260501204901 61 131 0.0 4.0 0.00 0.01 0.01 100 1002.6
20260501204801 61 131 0.0 4.0 0.00 0.01 0.01 100 1002.4
20260501204704 61 131 1.0 4.0 0.00 0.01 0.01 100 1002.3
20260501204559 61 131 1.0 5.0 0.00 0.01 0.01 100 1002.2
20260501204454 61 128 2.0 5.0 0.00 0.01 0.01 100 1002.0
20260501204352 61 86 2.0 5.0 0.00 0.01 0.01 100 1001.8
20260501204245 61 83 2.0 5.0 0.00 0.01 0.01 100 1001.7
20260501204137 61 92 2.0 5.0 0.00 0.01 0.01 100 1001.6
20260501204035 61 38 2.0 5.0 0.00 0.01 0.01 100 1001.6
20260501203932 61 0 2.0 5.0 0.00 0.01 0.01 100 1001.6
20260501203832 61 93 2.0 5.0 0.00 0.01 0.01 100 1001.8
20260501203730 61 89 2.0 5.0 0.00 0.01 0.01 100 1002.0
20260501203631 61 125 2.0 5.0 0.00 0.01 0.01 100 1002.2
20260501203532 61 72 1.0 4.0 0.00 0.01 0.01 100 1002.4
20260501203433 61 72 2.0 4.0 0.00 0.01 0.01 100 1002.6
20260501203332 61 56 2.0 4.0 0.00 0.01 0.01 100 1002.7
20260501203232 61 97 1.0 4.0 0.00 0.01 0.01 100 1002.7
20260501203131 61 59 0.0 4.0 0.00 0.01 0.01 100 1002.7
20260501203031 61 62 1.0 4.0 0.00 0.01 0.01 100 1002.7
20260501202931 61 62 1.0 4.0 0.00 0.01 0.01 100 1002.7
20260501202833 61 85 2.0 5.0 0.00 0.01 0.01 100 1002.7
20260501202731 61 38 2.0 5.0 0.00 0.01 0.01 100 1002.7
20260501202637 61 96 1.0 5.0 0.00 0.01 0.01 100 1002.7
20260501202524 61 96 0.0 5.0 0.00 0.01 0.01 100 1002.6
20260501202423 61 96 1.0 5.0 0.00 0.01 0.01 100 1002.6
20260501202320 61 96 1.0 5.0 0.00 0.01 0.01 100 1002.5
20260501202217 61 204 1.0 5.0 0.00 0.01 0.01 100 1002.6
20260501202109 61 128 1.0 5.0 0.00 0.01 0.01 100 1002.6
20260501202005 61 63 2.0 5.0 0.00 0.01 0.01 100 1002.6
20260501201902 61 68 1.0 5.0 0.00 0.01 0.01 100 1002.6
20260501201803 61 76 1.0 6.0 0.00 0.01 0.01 100 1002.6
20260501201702 61 131 1.0 6.0 0.00 0.01 0.01 100 1002.5
20260501201603 61 83 1.0 6.0 0.00 0.01 0.01 100 1002.4
20260501201503 61 94 2.0 9.0 0.00 0.01 0.01 100 1002.4
20260501201402 61 96 2.0 9.0 0.00 0.01 0.01 100 1002.3
20260501201303 61 78 2.0 9.0 0.00 0.01 0.01 100 1002.3
20260501201204 61 72 2.0 9.0 0.00 0.01 0.01 100 1002.2
20260501201103 62 83 1.0 9.0 0.00 0.01 0.01 100 1002.2
20260501201002 62 38 1.0 9.0 0.00 0.01 0.01 100 1002.1
20260501200902 62 38 2.0 9.0 0.00 0.01 0.01 100 1001.9
20260501200802 62 63 2.0 9.0 0.00 0.01 0.01 100 1001.9
20260501200702 62 92 2.0 9.0 0.00 0.01 0.01 100 1001.8
20260501200603 62 68 2.0 9.0 0.00 0.01 0.01 100 1001.8
20260501200502 62 6 1.0 6.0 0.00 0.01 0.01 100 1001.8
20260501200402 62 4 2.0 6.0 0.00 0.01 0.01 100 1001.9
20260501200302 62 90 2.0 6.0 0.00 0.01 0.01 100 1002.0
20260501200208 62 80 2.0 7.0 0.00 0.01 0.01 100 1002.2
20260501200004 62 79 2.0 7.0 0.00 0.01 0.01 100 1002.7
20260501195903 62 1 1.0 7.0 0.00 0.01 0.01 100 1002.8
20260501195803 62 73 1.0 7.0 0.00 0.01 0.01 100 1002.8
20260501195704 62 73 2.0 7.0 0.00 0.01 0.01 100 1002.8
20260501195604 62 73 2.0 7.0 0.00 0.01 0.01 100 1002.7
20260501195502 62 7 2.0 7.0 0.00 0.01 0.01 100 1002.6
20260501195404 62 63 3.0 7.0 0.00 0.01 0.01 100 1002.5
20260501195305 62 68 3.0 7.0 0.00 0.01 0.01 100 1002.5
20260501195203 62 55 2.0 4.0 0.00 0.01 0.01 100 1002.6
20260501195102 62 76 1.0 4.0 0.00 0.01 0.01 100 1002.8
20260501195003 62 345 1.0 4.0 0.00 0.01 0.01 100 1002.9
20260501194902 62 92 2.0 4.0 0.00 0.01 0.01 100 1003.1
20260501194805 62 96 1.0 3.0 0.00 0.01 0.01 100 1003.1
20260501194703 62 109 1.0 2.0 0.00 0.01 0.01 100 1002.9
20260501194607 62 106 1.0 2.0 0.00 0.01 0.01 100 1002.7
20260501194504 62 78 0.0 2.0 0.00 0.01 0.01 100 1002.7
20260501194404 62 76 1.0 2.0 0.00 0.01 0.01 100 1002.7
20260501194302 62 76 1.0 2.0 0.00 0.01 0.01 100 1002.8
20260501194202 62 75 1.0 2.0 0.00 0.01 0.01 100 1002.7
20260501194102 62 72 1.0 2.0 0.00 0.01 0.01 100 1002.8
20260501194002 62 73 1.0 3.0 0.00 0.01 0.01 100 1003.0
20260501193903 62 164 0.0 3.0 0.00 0.01 0.01 100 1003.3
20260501193802 62 164 1.0 3.0 0.00 0.01 0.01 100 1003.6
20260501193702 62 164 1.0 3.0 0.00 0.01 0.01 100 1003.7
20260501193602 62 102 0.0 3.0 0.00 0.01 0.01 100 1003.6
20260501193502 62 99 0.0 3.0 0.00 0.01 0.01 100 1003.4
20260501193403 62 99 0.0 3.0 0.00 0.01 0.01 100 1003.2
20260501193303 62 99 0.0 3.0 0.00 0.01 0.01 100 1002.9
20260501193202 62 99 1.0 3.0 0.00 0.01 0.01 100 1002.7
20260501193101 62 99 1.0 3.0 0.00 0.01 0.01 100 1002.6
20260501193003 62 0 1.0 2.0 0.00 0.01 0.01 100 1002.7
20260501192904 62 110 0.0 2.0 0.00 0.01 0.01 100 1002.7
20260501192803 62 302 0.0 2.0 0.00 0.01 0.01 100 1002.8
20260501192702 62 302 1.0 2.0 0.00 0.01 0.01 100 1002.9
20260501192603 62 300 1.0 2.0 0.00 0.01 0.01 100 1002.9
20260501192503 62 300 1.0 2.0 0.00 0.01 0.01 100 1002.9
20260501192403 62 109 1.0 2.0 0.00 0.01 0.01 100 1002.9
20260501192306 62 109 1.0 2.0 0.00 0.01 0.01 100 1002.8
20260501192202 62 109 1.0 2.0 0.00 0.01 0.01 100 1002.8
20260501192103 62 110 0.0 2.0 0.00 0.01 0.01 100 1002.7
20260501192004 62 110 1.0 2.0 0.00 0.01 0.01 100 1002.6
20260501191902 62 110 1.0 2.0 0.00 0.01 0.01 100 1002.6
20260501191803 62 83 1.0 4.0 0.00 0.01 0.01 100 1002.6
20260501191702 62 83 1.0 4.0 0.00 0.01 0.01 100 1002.7
20260501191601 62 83 0.0 4.0 0.00 0.01 0.01 100 1002.7
20260501191504 62 103 0.0 4.0 0.00 0.01 0.01 100 1002.7
20260501191404 62 103 1.0 4.0 0.00 0.01 0.01 100 1002.9
20260501191308 62 103 0.0 4.0 0.00 0.01 0.01 100 1002.8
20260501191202 62 103 0.0 4.0 0.00 0.01 0.01 100 1002.8
20260501191102 62 104 0.0 4.0 0.00 0.01 0.01 100 1002.8
20260501191002 62 104 1.0 4.0 0.00 0.01 0.01 100 1002.7
20260501190902 62 104 1.0 4.0 0.00 0.01 0.01 100 1002.8
20260501190801 62 120 1.0 3.0 0.00 0.01 0.01 100 1002.7
20260501190702 62 154 1.0 5.0 0.00 0.01 0.01 100 1002.6
20260501190602 62 154 1.0 5.0 0.00 0.01 0.01 100 1002.5
20260501190503 62 80 1.0 5.0 0.00 0.01 0.01 100 1002.3
20260501190403 62 73 1.0 5.0 0.00 0.01 0.01 100 1002.2
20260501190303 62 73 1.0 5.0 0.00 0.01 0.01 100 1002.1
20260501190204 62 61 1.0 5.0 0.00 0.01 0.01 100 1002.1
20260501190104 62 55 1.0 5.0 0.00 0.01 0.01 100 1002.1
20260501190003 62 42 1.0 5.0 0.00 0.01 0.01 100 1002.0
20260501185903 62 82 1.0 5.0 0.00 0.01 0.01 100 1002.0
20260501185803 62 82 2.0 5.0 0.00 0.01 0.01 100 1001.9
20260501185703 62 128 1.0 3.0 0.00 0.01 0.01 100 1001.9
20260501185604 62 128 2.0 4.0 0.00 0.01 0.01 100 1001.8
20260501185504 62 82 2.0 4.0 0.00 0.01 0.01 100 1001.8
20260501185402 62 16 1.0 4.0 0.00 0.01 0.01 100 1001.8
20260501185305 62 38 1.0 4.0 0.00 0.01 0.01 100 1001.9
20260501185202 62 285 1.0 4.0 0.00 0.01 0.01 100 1001.8
20260501185102 62 285 1.0 4.0 0.00 0.01 0.01 100 1001.7
20260501185004 62 283 1.0 4.0 0.00 0.01 0.01 100 1001.7
20260501184903 62 73 1.0 4.0 0.00 0.01 0.01 100 1001.6
20260501184802 62 73 2.0 4.0 0.00 0.01 0.01 100 1001.6
20260501184702 62 90 2.0 4.0 0.00 0.01 0.01 100 1001.4
20260501184602 62 358 2.0 4.0 0.00 0.01 0.01 100 1001.3
20260501184502 62 75 2.0 3.0 0.00 0.01 0.01 100 1001.4
20260501184403 62 89 1.0 3.0 0.00 0.01 0.01 100 1001.4
20260501184304 62 266 1.0 2.0 0.00 0.01 0.01 100 1001.5
20260501184202 62 265 1.0 2.0 0.00 0.01 0.01 100 1001.5
20260501184102 62 292 2.0 2.0 0.00 0.01 0.01 100 1001.6
20260501184004 62 286 0.0 2.0 0.00 0.01 0.01 100 1001.6
20260501183904 62 286 0.0 2.0 0.00 0.01 0.01 100 1001.7
20260501183804 62 286 0.0 2.0 0.00 0.01 0.01 100 1001.8
20260501183703 62 286 0.0 3.0 0.00 0.01 0.01 100 1001.8
20260501183603 62 286 0.0 3.0 0.00 0.01 0.01 100 1001.9
20260501183504 62 286 0.0 3.0 0.00 0.01 0.01 100 1002.0
20260501183405 62 286 0.0 3.0 0.00 0.01 0.01 100 1002.0
20260501183258 62 286 0.0 5.0 0.00 0.01 0.01 100 1002.0
20260501183206 62 293 0.0 5.0 0.00 0.01 0.01 100 1002.1
20260501183056 62 293 0.0 5.0 0.00 0.01 0.01 100 1002.0
20260501182956 62 138 0.0 5.0 0.00 0.01 0.01 100 1001.9
20260501182857 62 145 1.0 5.0 0.00 0.01 0.01 100 1001.9
20260501182758 62 145 1.0 5.0 0.00 0.01 0.01 100 1001.8
20260501182657 62 94 1.0 5.0 0.00 0.01 0.01 100 1001.9
20260501182557 62 94 1.0 5.0 0.00 0.01 0.01 100 1001.7
20260501182458 62 109 2.0 5.0 0.00 0.01 0.01 100 1001.7
20260501182357 62 118 2.0 5.0 0.00 0.01 0.01 100 1001.7
20260501182257 62 312 1.0 7.0 0.00 0.01 0.01 100 1001.6
20260501182157 62 76 1.0 7.0 0.00 0.01 0.01 100 1001.5
20260501182058 62 30 1.0 7.0 0.00 0.01 0.01 100 1001.3
20260501181957 62 6 1.0 7.0 0.00 0.01 0.01 100 1001.2
20260501181856 62 145 1.0 7.0 0.00 0.01 0.01 100 1001.1
20260501181756 62 148 0.0 7.0 0.00 0.01 0.01 100 1001.0
20260501181656 62 145 1.0 7.0 0.00 0.01 0.01 100 1001.0
20260501181559 62 145 2.0 7.0 0.00 0.01 0.01 100 1000.9
20260501181456 62 147 3.0 7.0 0.00 0.01 0.01 100 1001.0
20260501181357 62 109 2.0 7.0 0.00 0.01 0.01 100 1001.0
20260501181256 62 109 1.0 5.0 0.00 0.01 0.01 100 1001.1
20260501181158 62 41 1.0 6.0 0.00 0.01 0.01 100 1001.0
20260501181057 62 41 2.0 6.0 0.00 0.01 0.01 100 1001.0
20260501180957 61 27 2.0 6.0 0.00 0.01 0.01 100 1000.8
20260501180857 61 279 2.0 7.0 0.00 0.01 0.01 100 1000.6
20260501180757 61 86 3.0 7.0 0.00 0.01 0.01 100 1000.4
20260501180658 61 80 2.0 7.0 0.00 0.01 0.01 100 1000.2
20260501180556 61 0 1.0 7.0 0.00 0.01 0.01 100 999.9
20260501180456 61 32 1.0 7.0 0.00 0.01 0.01 100 999.7
20260501180357 61 31 2.0 7.0 0.00 0.01 0.01 100 999.6
20260501180257 61 93 2.0 7.0 0.00 0.01 0.01 100 999.8
20260501180156 61 86 1.0 7.0 0.00 0.01 0.01 100 1000.0
20260501180056 61 85 4.0 7.0 0.00 0.01 0.01 100 1000.1
20260501175958 61 128 4.0 7.0 0.00 0.01 0.01 100 1000.2
20260501175857 61 87 1.0 6.0 0.00 0.01 0.01 100 1000.3
20260501175758 61 127 1.0 6.0 0.00 0.01 0.01 100 1000.4
20260501175656 61 114 2.0 6.0 0.00 0.01 0.01 100 1000.6
20260501175556 61 44 2.0 6.0 0.00 0.01 0.01 100 1000.7
20260501175457 61 90 2.0 10.0 0.00 0.01 0.01 100 1000.9
20260501175358 61 78 2.0 10.0 0.00 0.01 0.01 100 1000.9
20260501175258 61 85 1.0 10.0 0.00 0.01 0.01 100 1000.9
20260501175158 61 86 1.0 10.0 0.00 0.01 0.01 100 1000.7
20260501175057 61 89 3.0 10.0 0.00 0.01 0.01 100 1000.4
20260501174955 61 13 3.0 10.0 0.00 0.01 0.01 100 999.8
20260501174857 61 78 2.0 10.0 0.00 0.01 0.01 100 999.4
20260501174756 61 62 3.0 10.0 0.00 0.01 0.01 100 999.2
20260501174655 61 82 4.0 10.0 0.00 0.01 0.01 100 999.4
20260501174557 61 75 4.0 10.0 0.00 0.01 0.01 100 1000.1
20260501174457 61 76 2.0 9.0 0.00 0.01 0.01 100 1000.8
20260501174356 62 78 1.0 4.0 0.00 0.01 0.01 100 1001.2
20260501174257 61 142 2.0 4.0 0.00 0.01 0.01 100 1001.2
20260501174156 61 0 2.0 4.0 0.00 0.01 0.01 100 1001.2
20260501174056 61 138 1.0 3.0 0.00 0.01 0.01 100 1001.4
20260501173957 61 131 2.0 3.0 0.00 0.01 0.01 100 1001.7
20260501173855 61 169 2.0 4.0 0.00 0.01 0.01 100 1002.2
20260501173756 61 171 2.0 4.0 0.00 0.01 0.01 100 1002.5
20260501173655 61 248 2.0 4.0 0.00 0.01 0.01 100 1002.6
20260501173555 61 6 1.0 4.0 0.00 0.01 0.01 100 1002.8
20260501173457 61 80 0.0 4.0 0.00 0.01 0.01 100 1002.8
20260501173357 61 80 0.0 4.0 0.00 0.01 0.01 100 1002.8
20260501173256 61 80 1.0 4.0 0.00 0.01 0.01 100 1002.8
20260501173156 61 71 1.0 4.0 0.00 0.01 0.01 100 1002.8
20260501173055 61 71 2.0 4.0 0.00 0.01 0.01 100 1002.9
20260501172955 61 65 1.0 4.0 0.00 0.01 0.01 100 1003.1
20260501172856 61 111 1.0 3.0 0.00 0.01 0.01 100 1003.2
20260501172757 61 343 1.0 3.0 0.00 0.01 0.01 100 1003.2
20260501172657 61 354 1.0 3.0 0.00 0.01 0.01 100 1003.2
20260501172555 61 157 1.0 3.0 0.00 0.01 0.01 100 1003.1
20260501172456 61 59 1.0 3.0 0.00 0.01 0.01 100 1003.2
20260501172355 61 75 1.0 3.0 0.00 0.01 0.01 100 1003.3
20260501172255 61 75 2.0 3.0 0.00 0.01 0.01 100 1003.4
20260501172156 61 32 1.0 3.0 0.00 0.01 0.01 100 1003.5
20260501172055 61 59 1.0 3.0 0.00 0.01 0.01 100 1003.7
20260501171956 61 87 1.0 3.0 0.00 0.01 0.01 100 1003.8